contact:dominique.lefevre@mio.osupytheas.fr, maurice.libes@osupytheas.fr, didier.mallarino@osupytheas.fr
Project:EMSO http://www.emso-fr.org/EMSO-France
Depth: 2436.0 m
Title:EMSO Ligure Ouest : Data MII capteur AQUADOPP
Date,Latitude,Longitude,X_East,Y_North,Z_Up,Amplitude_X,Amplitude_Y,Amplitude_Z,Batterie,SoundSpeed,Heading,Pitch,Roll,Pressure,TIS,Speed,Direction
, degrees North, degrees East, m.s-1, m.s-1,m.s-1, 1, 1, 1, Volt, m.s-1, degree, degree, degree, dbar, degree_C, m.s-1, degree
2021-11-08T00:04:03,42.805,6.029,0.047,-0.007,0.016,100.0,101.0,99.0,13.4,1505.2,326.1,-0.7,1.8,2470.672,13.28,0.047,98.5
2021-11-08T00:07:03,42.805,6.029,0.039,-0.039,-0.019,100.0,100.0,100.0,13.3,1505.2,325.9,-0.8,1.8,2470.684,13.28,0.055,135.0
2021-11-08T00:10:03,42.805,6.029,0.036,-0.033,0.002,101.0,101.0,99.0,13.3,1505.2,328.8,-0.8,1.8,2470.691,13.28,0.048,132.5
2021-11-08T00:13:03,42.805,6.029,0.035,-0.005,-0.007,100.0,100.0,100.0,13.3,1505.2,326.8,-0.8,1.8,2470.695,13.28,0.035,98.1
2021-11-08T00:16:03,42.805,6.029,0.014,-0.017,-0.005,99.0,101.0,100.0,13.4,1505.2,328.0,-0.7,1.8,2470.661,13.28,0.022,140.5
2021-11-08T00:19:03,42.805,6.029,0.032,-0.022,-0.023,101.0,100.0,98.0,13.4,1505.2,329.4,-0.8,1.8,2470.671,13.28,0.038,124.5
2021-11-08T00:22:03,42.805,6.029,0.029,-0.001,-0.012,99.0,101.0,99.0,13.4,1505.2,327.1,-0.8,1.8,2470.67,13.28,0.029,92.0
2021-11-08T00:25:03,42.805,6.029,0.0,-0.001,-0.005,99.0,100.0,100.0,13.3,1505.2,328.7,-0.7,1.8,2470.647,13.28,0.001,180.0
2021-11-08T00:28:03,42.805,6.029,0.025,0.002,-0.007,100.0,101.0,100.0,13.4,1505.2,326.2,-0.7,1.8,2470.603,13.28,0.025,85.4
2021-11-08T00:31:03,42.805,6.029,0.016,0.012,0.008,101.0,101.0,99.0,13.3,1505.2,329.4,-0.8,1.8,2470.649,13.28,0.02,53.1
2021-11-08T00:34:03,42.805,6.029,0.018,-0.007,0.016,101.0,100.0,99.0,13.4,1505.2,326.2,-0.7,1.8,2470.596,13.28,0.019,111.2
2021-11-08T00:37:03,42.805,6.029,0.036,-0.03,-0.014,98.0,101.0,99.0,13.4,1505.2,325.9,-0.7,1.8,2470.616,13.28,0.046,129.8
2021-11-08T00:40:03,42.805,6.029,0.046,-0.004,0.021,100.0,102.0,98.0,13.4,1505.2,326.7,-0.7,1.8,2470.635,13.28,0.046,95.0
2021-11-08T00:43:03,42.805,6.029,0.047,-0.038,-0.018,100.0,101.0,100.0,13.3,1505.2,330.0,-0.7,1.8,2470.666,13.28,0.06,129.0
2021-11-08T00:46:03,42.805,6.029,0.043,-0.029,-0.016,101.0,99.0,98.0,13.3,1505.2,328.8,-0.8,1.8,2470.622,13.28,0.051,124.0
2021-11-08T00:49:03,42.805,6.029,0.047,-0.01,0.008,100.0,100.0,100.0,13.4,1505.2,327.1,-0.7,1.8,2470.627,13.28,0.048,102.0
2021-11-08T00:52:03,42.805,6.029,0.031,-0.018,-0.017,100.0,101.0,100.0,13.3,1505.2,329.3,-0.8,1.8,2470.61,13.28,0.035,120.1
2021-11-08T00:55:03,42.805,6.029,0.032,0.012,0.013,99.0,100.0,100.0,13.4,1505.2,327.0,-0.7,1.8,2470.633,13.28,0.034,69.4
2021-11-08T00:58:03,42.805,6.029,0.04,0.008,0.018,100.0,100.0,100.0,13.3,1505.2,331.1,-0.8,1.9,2470.623,13.28,0.04,78.7
2021-11-08T01:04:03,42.805,6.029,0.05,-0.014,-0.036,101.0,101.0,101.0,13.4,1505.2,330.5,-0.7,1.8,2470.611,13.28,0.051,105.6
2021-11-08T01:07:03,42.805,6.029,0.033,-0.003,-0.033,101.0,100.0,102.0,13.4,1505.2,330.0,-0.8,1.8,2470.567,13.28,0.033,95.2
2021-11-08T01:10:03,42.805,6.029,0.045,-0.012,0.011,101.0,101.0,100.0,13.3,1505.2,330.6,-0.8,1.8,2470.598,13.28,0.046,104.9
2021-11-08T01:13:03,42.805,6.029,0.026,-0.006,0.004,100.0,100.0,100.0,13.4,1505.2,326.6,-0.7,1.8,2470.59,13.28,0.026,103.0
2021-11-08T01:16:03,42.805,6.029,0.029,-0.019,-0.009,99.0,101.0,99.0,13.3,1505.2,325.2,-0.8,1.8,2470.596,13.28,0.034,123.2
2021-11-08T01:19:03,42.805,6.029,0.062,-0.016,-0.013,100.0,100.0,99.0,13.4,1505.2,326.9,-0.8,1.8,2470.588,13.28,0.064,104.5
2021-11-08T01:22:03,42.805,6.029,0.029,0.0,0.036,100.0,102.0,100.0,13.3,1505.2,329.7,-0.7,1.9,2470.61,13.28,0.028,90.0
2021-11-08T01:25:03,42.805,6.029,0.01,-0.015,-0.023,99.0,100.0,100.0,13.4,1505.2,326.5,-0.7,1.8,2470.571,13.28,0.018,146.3
2021-11-08T01:28:03,42.805,6.029,0.022,-0.039,-0.041,100.0,101.0,100.0,13.3,1505.2,329.6,-0.7,1.8,2470.587,13.28,0.044,150.6
2021-11-08T01:31:03,42.805,6.029,0.019,-0.006,0.021,100.0,100.0,100.0,13.3,1505.2,329.9,-0.8,1.8,2470.538,13.28,0.019,107.5
2021-11-08T01:34:03,42.805,6.029,0.018,-0.01,0.003,99.0,102.0,100.0,13.4,1505.2,329.1,-0.7,1.8,2470.578,13.28,0.02,119.1
2021-11-08T01:37:03,42.805,6.029,0.037,0.0,0.012,100.0,102.0,99.0,13.4,1505.2,328.9,-0.7,1.8,2470.607,13.28,0.037,90.0
2021-11-08T01:40:03,42.805,6.029,0.015,0.007,0.021,100.0,100.0,99.0,13.4,1505.2,330.3,-0.8,1.8,2470.59,13.28,0.016,65.0
2021-11-08T01:43:03,42.805,6.029,0.043,-0.025,-0.002,98.0,101.0,101.0,13.4,1505.2,327.5,-0.7,1.8,2470.562,13.28,0.049,120.2
2021-11-08T01:46:03,42.805,6.029,0.042,-0.006,-0.012,101.0,98.0,100.0,13.3,1505.2,328.5,-0.7,1.8,2470.568,13.28,0.042,98.1
2021-11-08T01:49:03,42.805,6.029,0.023,-0.013,-0.017,101.0,99.0,101.0,13.3,1505.2,330.1,-0.8,1.8,2470.553,13.28,0.026,119.5
2021-11-08T01:52:03,42.805,6.029,0.017,-0.009,-0.017,100.0,101.0,100.0,13.4,1505.2,326.3,-0.8,1.8,2470.596,13.28,0.019,117.9
2021-11-08T01:55:03,42.805,6.029,0.009,-0.012,-0.018,100.0,100.0,100.0,13.4,1505.2,327.6,-0.8,1.8,2470.614,13.28,0.015,143.1
2021-11-08T01:58:03,42.805,6.029,0.023,-0.015,0.0,99.0,100.0,99.0,13.4,1505.2,329.6,-0.8,1.8,2470.536,13.28,0.027,123.1
2021-11-08T02:04:03,42.805,6.029,0.036,-0.027,0.007,99.0,100.0,100.0,13.4,1505.2,327.1,-0.8,1.8,2470.554,13.28,0.045,126.9
2021-11-08T02:07:03,42.805,6.029,0.019,-0.029,-0.042,99.0,100.0,100.0,13.4,1505.2,326.9,-0.8,1.8,2470.506,13.28,0.034,146.8
2021-11-08T02:10:03,42.805,6.029,0.049,0.007,0.037,100.0,100.0,99.0,13.4,1505.2,329.7,-0.8,1.8,2470.547,13.28,0.049,81.9
2021-11-08T02:13:03,42.805,6.029,0.018,-0.015,0.015,100.0,100.0,99.0,13.4,1505.2,331.7,-0.7,1.8,2470.509,13.28,0.023,129.8
2021-11-08T02:16:03,42.805,6.029,0.018,-0.007,0.03,100.0,99.0,100.0,13.4,1505.2,325.2,-0.8,1.8,2470.521,13.28,0.019,111.2
2021-11-08T02:19:03,42.805,6.029,0.032,0.002,0.028,100.0,101.0,99.0,13.4,1505.2,326.4,-0.8,1.8,2470.496,13.28,0.032,86.4
2021-11-08T02:22:03,42.805,6.029,0.033,-0.006,0.0,100.0,100.0,100.0,13.4,1505.2,326.2,-0.8,1.8,2470.503,13.28,0.033,100.3
2021-11-08T02:25:03,42.805,6.029,0.029,-0.016,-0.012,99.0,101.0,100.0,13.4,1505.2,327.0,-0.8,1.8,2470.515,13.28,0.033,118.9
2021-11-08T02:28:03,42.805,6.029,0.027,0.004,0.007,100.0,101.0,99.0,13.4,1505.2,330.7,-0.7,1.8,2470.521,13.28,0.027,81.6
2021-11-08T02:31:03,42.805,6.029,0.012,0.004,0.018,100.0,98.0,99.0,13.4,1505.2,328.9,-0.8,1.8,2470.518,13.28,0.012,71.6
2021-11-08T02:34:03,42.805,6.029,0.035,-0.015,-0.017,100.0,101.0,99.0,13.4,1505.2,330.3,-0.7,1.8,2470.55,13.28,0.038,113.2
2021-11-08T02:37:03,42.805,6.029,0.024,0.0,0.007,98.0,99.0,101.0,13.4,1505.2,327.7,-0.8,1.8,2470.54,13.28,0.024,90.0
2021-11-08T02:40:03,42.805,6.029,0.031,-0.018,-0.013,100.0,100.0,100.0,13.3,1505.2,330.7,-0.7,1.8,2470.537,13.28,0.035,120.1
2021-11-08T02:43:03,42.805,6.029,0.033,0.005,0.055,100.0,102.0,99.0,13.3,1505.2,331.6,-0.8,1.8,2470.517,13.28,0.033,81.4
2021-11-08T02:46:03,42.805,6.029,0.008,-0.012,-0.029,101.0,101.0,99.0,13.4,1505.2,330.2,-0.8,1.8,2470.521,13.28,0.014,146.3
2021-11-08T02:49:03,42.805,6.029,0.036,-0.022,-0.025,99.0,99.0,101.0,13.3,1505.2,330.4,-0.7,1.9,2470.44,13.28,0.042,121.4
2021-11-08T02:52:03,42.805,6.029,0.038,-0.012,-0.003,101.0,101.0,99.0,13.4,1505.2,329.3,-0.7,1.8,2470.496,13.28,0.039,107.5
2021-11-08T02:55:03,42.805,6.029,0.004,-0.021,-0.048,99.0,100.0,100.0,13.4,1505.2,329.4,-0.8,1.8,2470.442,13.28,0.021,169.2
2021-11-08T02:58:03,42.805,6.029,0.052,-0.007,0.0,98.0,100.0,100.0,13.3,1505.2,325.7,-0.7,1.9,2470.435,13.28,0.052,97.7
2021-11-08T03:04:03,42.805,6.029,0.037,-0.015,0.023,99.0,99.0,99.0,13.4,1505.2,329.9,-0.8,1.8,2470.4,13.28,0.039,112.1
2021-11-08T03:07:03,42.805,6.029,0.015,-0.039,-0.035,98.0,102.0,99.0,13.4,1505.2,330.2,-0.7,1.8,2470.415,13.28,0.041,159.0
2021-11-08T03:10:03,42.805,6.029,0.011,-0.005,-0.023,98.0,100.0,100.0,13.4,1505.2,327.0,-0.7,1.8,2470.402,13.28,0.012,114.4
2021-11-08T03:13:03,42.805,6.029,0.035,-0.01,0.011,100.0,101.0,99.0,13.4,1505.2,329.7,-0.7,1.8,2470.392,13.28,0.036,105.9
2021-11-08T03:16:03,42.805,6.029,0.043,-0.031,0.005,101.0,99.0,99.0,13.4,1505.2,331.1,-0.8,1.8,2470.387,13.28,0.053,125.8
2021-11-08T03:19:03,42.805,6.029,0.034,-0.014,0.018,100.0,99.0,100.0,13.4,1505.2,327.6,-0.7,1.8,2470.346,13.28,0.036,112.4
2021-11-08T03:22:03,42.805,6.029,0.029,-0.032,-0.021,99.0,99.0,99.0,13.4,1505.2,325.1,-0.8,1.8,2470.443,13.28,0.043,137.8
2021-11-08T03:25:03,42.805,6.029,0.031,-0.002,0.038,97.0,100.0,101.0,13.3,1505.2,330.5,-0.7,1.8,2470.443,13.28,0.031,93.7
2021-11-08T03:28:03,42.805,6.029,0.019,-0.013,0.015,99.0,100.0,99.0,13.3,1505.2,329.6,-0.7,1.8,2470.408,13.28,0.023,124.4
2021-11-08T03:31:03,42.805,6.029,0.003,-0.015,-0.019,99.0,99.0,100.0,13.4,1505.2,329.7,-0.7,1.9,2470.403,13.28,0.015,168.7
2021-11-08T03:34:03,42.805,6.029,0.027,0.001,-0.001,99.0,100.0,99.0,13.4,1505.2,329.5,-0.8,1.8,2470.475,13.28,0.027,87.9
2021-11-08T03:37:03,42.805,6.029,0.032,-0.008,0.001,100.0,99.0,100.0,13.4,1505.2,331.3,-0.8,1.8,2470.544,13.28,0.032,104.0
2021-11-08T03:40:03,42.805,6.029,0.023,-0.006,0.016,100.0,100.0,100.0,13.3,1505.2,324.8,-0.8,1.8,2470.475,13.28,0.023,104.6
2021-11-08T03:43:03,42.805,6.029,0.01,-0.021,-0.035,99.0,100.0,99.0,13.4,1505.2,327.8,-0.7,1.9,2470.442,13.28,0.023,154.5
2021-11-08T03:46:03,42.805,6.029,0.006,0.0,0.016,99.0,100.0,99.0,13.4,1505.2,327.3,-0.8,1.8,2470.406,13.28,0.006,90.0
2021-11-08T03:49:03,42.805,6.029,0.026,-0.017,-0.013,99.0,101.0,100.0,13.4,1505.2,328.0,-0.7,1.8,2470.415,13.28,0.031,123.2
2021-11-08T03:52:03,42.805,6.029,0.031,-0.021,-0.029,99.0,100.0,99.0,13.3,1505.2,327.3,-0.8,1.8,2470.38,13.28,0.037,124.1
2021-11-08T03:55:03,42.805,6.029,0.019,0.001,0.019,100.0,100.0,100.0,13.4,1505.2,330.1,-0.7,1.8,2470.399,13.28,0.019,87.0
2021-11-08T03:58:03,42.805,6.029,0.022,-0.01,-0.009,99.0,100.0,99.0,13.4,1505.2,329.0,-0.8,1.8,2470.416,13.28,0.024,114.4
2021-11-08T04:04:03,42.805,6.029,0.017,-0.015,-0.035,100.0,101.0,99.0,13.4,1505.2,330.0,-0.7,1.8,2470.396,13.28,0.022,131.4
2021-11-08T04:07:03,42.805,6.029,0.007,0.023,0.035,99.0,101.0,100.0,13.4,1505.2,326.4,-0.7,1.8,2470.429,13.28,0.024,16.9
2021-11-08T04:10:03,42.805,6.029,0.036,-0.015,0.003,98.0,99.0,101.0,13.4,1505.2,327.9,-0.7,1.8,2470.404,13.28,0.039,112.6
2021-11-08T04:13:03,42.805,6.029,0.028,-0.019,-0.026,99.0,101.0,101.0,13.4,1505.2,328.4,-0.8,1.8,2470.392,13.28,0.033,124.2
2021-11-08T04:16:03,42.805,6.029,0.043,0.003,0.005,99.0,101.0,99.0,13.4,1505.2,325.5,-0.8,1.8,2470.435,13.28,0.043,86.0
2021-11-08T04:19:03,42.805,6.029,0.036,-0.016,-0.027,100.0,98.0,101.0,13.4,1505.2,331.0,-0.8,1.8,2470.41,13.28,0.039,114.0
2021-11-08T04:22:03,42.805,6.029,0.035,-0.002,-0.018,99.0,100.0,99.0,13.4,1505.2,327.9,-0.8,1.8,2470.473,13.28,0.035,93.3
2021-11-08T04:25:03,42.805,6.029,0.043,-0.006,0.0,101.0,103.0,100.0,13.4,1505.2,330.7,-0.8,1.8,2470.476,13.28,0.043,97.9
2021-11-08T04:28:03,42.805,6.029,0.049,-0.031,-0.004,99.0,102.0,100.0,13.3,1505.2,330.6,-0.8,1.8,2470.529,13.28,0.057,122.3
2021-11-08T04:31:03,42.805,6.029,0.022,0.0,0.002,100.0,98.0,100.0,13.3,1505.2,326.1,-0.8,1.8,2470.49,13.28,0.022,90.0
2021-11-08T04:34:03,42.805,6.029,0.035,-0.002,0.012,99.0,101.0,100.0,13.4,1505.2,328.4,-0.8,1.8,2470.529,13.28,0.035,93.3
2021-11-08T04:37:03,42.805,6.029,0.064,-0.015,0.008,100.0,101.0,100.0,13.4,1505.2,328.4,-0.8,1.8,2470.504,13.28,0.065,103.2
2021-11-08T04:40:03,42.805,6.029,0.021,-0.012,-0.012,99.0,101.0,100.0,13.3,1505.2,329.7,-0.8,1.8,2470.523,13.28,0.024,119.7
2021-11-08T04:43:03,42.805,6.029,0.04,-0.013,-0.015,99.0,99.0,100.0,13.4,1505.2,327.3,-0.7,1.8,2470.525,13.28,0.042,108.0
2021-11-08T04:46:03,42.805,6.029,0.044,-0.028,-0.026,99.0,100.0,100.0,13.4,1505.2,329.7,-0.8,1.8,2470.53,13.28,0.052,122.5
2021-11-08T04:49:03,42.805,6.029,0.042,-0.019,-0.034,101.0,99.0,100.0,13.3,1505.2,331.9,-0.8,1.8,2470.521,13.28,0.046,114.3
2021-11-08T04:52:03,42.805,6.029,0.032,-0.022,-0.025,100.0,100.0,100.0,13.4,1505.2,327.7,-0.8,1.9,2470.584,13.28,0.038,124.5
2021-11-08T04:55:03,42.805,6.029,0.038,-0.011,0.023,99.0,101.0,99.0,13.4,1505.2,328.9,-0.8,1.8,2470.597,13.28,0.039,106.1
2021-11-08T04:58:03,42.805,6.029,0.007,-0.009,-0.022,101.0,100.0,99.0,13.4,1505.2,326.2,-0.7,1.8,2470.559,13.28,0.011,142.1
2021-11-08T05:04:03,42.805,6.029,0.028,-0.032,-0.007,99.0,100.0,100.0,13.3,1505.2,330.6,-0.7,1.8,2470.628,13.28,0.042,138.8
2021-11-08T05:07:03,42.805,6.029,0.042,-0.018,0.002,100.0,100.0,100.0,13.4,1505.2,331.1,-0.8,1.8,2470.593,13.28,0.045,113.2
2021-11-08T05:10:03,42.805,6.029,0.025,-0.021,-0.013,100.0,100.0,99.0,13.4,1505.2,326.9,-0.7,1.8,2470.6,13.28,0.032,130.0
2021-11-08T05:13:03,42.805,6.029,0.04,-0.019,-0.01,98.0,101.0,100.0,13.4,1505.2,328.2,-0.8,1.8,2470.581,13.28,0.044,115.4
2021-11-08T05:16:03,42.805,6.029,0.057,0.007,0.024,99.0,101.0,100.0,13.4,1505.2,329.6,-0.8,1.8,2470.62,13.28,0.057,83.0
2021-11-08T05:19:03,42.805,6.029,0.058,-0.024,0.008,100.0,101.0,99.0,13.3,1505.2,327.6,-0.8,1.8,2470.592,13.28,0.062,112.5
2021-11-08T05:22:03,42.805,6.029,0.013,-0.008,0.008,100.0,100.0,99.0,13.4,1505.2,327.2,-0.7,1.8,2470.586,13.28,0.015,121.6
2021-11-08T05:25:03,42.805,6.029,0.023,-0.013,-0.009,99.0,100.0,99.0,13.4,1505.2,328.1,-0.8,1.9,2470.598,13.28,0.026,119.5
2021-11-08T05:28:03,42.805,6.029,0.045,-0.01,-0.005,99.0,100.0,99.0,13.3,1505.2,327.6,-0.8,1.9,2470.603,13.28,0.046,102.5
2021-11-08T05:31:03,42.805,6.029,0.044,-0.008,0.028,101.0,100.0,100.0,13.4,1505.2,325.2,-0.8,1.8,2470.568,13.28,0.044,100.3
2021-11-08T05:34:03,42.805,6.029,0.032,-0.027,-0.03,100.0,99.0,100.0,13.4,1505.2,331.6,-0.8,1.8,2470.593,13.28,0.041,130.2
2021-11-08T05:37:03,42.805,6.029,0.033,-0.006,-0.015,99.0,99.0,99.0,13.4,1505.2,329.4,-0.8,1.8,2470.614,13.28,0.033,100.3
2021-11-08T05:40:03,42.805,6.029,0.03,-0.007,-0.038,99.0,100.0,100.0,13.3,1505.2,327.8,-0.7,1.8,2470.627,13.28,0.03,103.1
2021-11-08T05:43:03,42.805,6.029,0.015,-0.015,-0.032,99.0,100.0,99.0,13.3,1505.2,328.4,-0.7,1.8,2470.61,13.28,0.021,135.0
2021-11-08T05:46:03,42.805,6.029,0.04,-0.023,-0.021,99.0,100.0,100.0,13.4,1505.2,326.9,-0.8,1.9,2470.601,13.28,0.046,119.9
2021-11-08T05:49:03,42.805,6.029,0.028,-0.035,-0.022,99.0,100.0,99.0,13.4,1505.2,328.8,-0.8,1.8,2470.617,13.28,0.044,141.3
2021-11-08T05:52:03,42.805,6.029,0.027,-0.031,-0.018,100.0,101.0,100.0,13.4,1505.2,328.3,-0.8,1.8,2470.613,13.28,0.041,138.9
2021-11-08T05:55:03,42.805,6.029,0.05,-0.041,-0.033,100.0,100.0,100.0,13.4,1505.2,326.6,-0.8,1.8,2470.603,13.28,0.064,129.3
2021-11-08T05:58:03,42.805,6.029,0.047,-0.024,0.007,100.0,100.0,100.0,13.4,1505.2,328.0,-0.7,1.8,2470.633,13.28,0.052,117.0
2021-11-08T06:04:03,42.805,6.029,0.02,-0.005,-0.001,100.0,100.0,100.0,13.4,1505.2,328.0,-0.8,1.8,2470.667,13.28,0.02,104.0
2021-11-08T06:07:03,42.805,6.029,0.017,-0.003,-0.026,100.0,100.0,99.0,13.4,1505.2,326.3,-0.8,1.8,2470.659,13.28,0.017,100.0
2021-11-08T06:10:03,42.805,6.029,0.023,-0.012,-0.024,100.0,100.0,100.0,13.4,1505.2,329.1,-0.7,1.8,2470.672,13.28,0.025,117.6
2021-11-08T06:13:03,42.805,6.029,0.054,-0.016,0.022,99.0,100.0,101.0,13.4,1505.2,329.1,-0.8,1.8,2470.648,13.28,0.056,106.5
2021-11-08T06:16:03,42.805,6.029,0.022,-0.022,-0.031,98.0,99.0,101.0,13.4,1505.2,329.2,-0.7,1.9,2470.674,13.28,0.031,135.0
2021-11-08T06:19:03,42.805,6.029,0.06,-0.027,-0.018,100.0,101.0,100.0,13.4,1505.2,325.3,-0.8,1.8,2470.66,13.28,0.065,114.2
2021-11-08T06:22:03,42.805,6.029,0.015,0.013,0.002,100.0,101.0,100.0,13.4,1505.2,329.2,-0.8,1.8,2470.667,13.28,0.019,49.1
2021-11-08T06:25:03,42.805,6.029,0.029,-0.003,0.013,99.0,100.0,100.0,13.4,1505.2,327.3,-0.8,1.8,2470.687,13.28,0.029,95.9
2021-11-08T06:28:03,42.805,6.029,0.005,-0.016,-0.057,99.0,99.0,100.0,13.3,1505.2,330.2,-0.8,1.8,2470.648,13.28,0.016,162.6
2021-11-08T06:31:03,42.805,6.029,0.02,-0.018,-0.021,100.0,99.0,100.0,13.3,1505.2,329.9,-0.8,1.8,2470.691,13.28,0.026,132.0
2021-11-08T06:34:03,42.805,6.029,0.021,-0.031,-0.028,100.0,100.0,100.0,13.3,1505.2,329.5,-0.8,1.8,2470.666,13.28,0.037,145.9
2021-11-08T06:37:03,42.805,6.029,0.038,-0.02,0.013,99.0,100.0,100.0,13.4,1505.2,331.8,-0.7,1.8,2470.702,13.28,0.042,117.8
2021-11-08T06:40:03,42.805,6.029,0.021,-0.03,-0.016,100.0,100.0,100.0,13.4,1505.2,331.5,-0.8,1.8,2470.694,13.28,0.036,145.0
2021-11-08T06:43:03,42.805,6.029,0.047,-0.018,0.013,100.0,100.0,100.0,13.4,1505.2,325.8,-0.8,1.8,2470.684,13.28,0.05,111.0
2021-11-08T06:46:03,42.805,6.029,0.045,-0.027,-0.007,99.0,101.0,100.0,13.3,1505.2,325.7,-0.8,1.8,2470.688,13.28,0.052,121.0
2021-11-08T06:49:03,42.805,6.029,0.016,-0.026,-0.03,101.0,99.0,99.0,13.4,1505.2,326.8,-0.8,1.8,2470.696,13.28,0.03,148.4
2021-11-08T06:52:03,42.805,6.029,0.024,0.004,0.024,100.0,101.0,99.0,13.4,1505.2,327.3,-0.8,1.8,2470.656,13.28,0.024,80.5
2021-11-08T06:55:03,42.805,6.029,0.023,-0.015,-0.014,101.0,100.0,99.0,13.4,1505.2,327.9,-0.8,1.8,2470.681,13.28,0.027,123.1
2021-11-08T06:58:03,42.805,6.029,0.022,-0.011,-0.014,98.0,100.0,101.0,13.4,1505.2,326.6,-0.7,1.8,2470.712,13.28,0.024,116.6
2021-11-08T07:04:03,42.805,6.029,0.018,-0.018,-0.001,100.0,100.0,100.0,13.4,1505.2,328.4,-0.8,1.8,2470.762,13.28,0.025,135.0
2021-11-08T07:07:03,42.805,6.029,0.012,-0.024,-0.033,100.0,100.0,100.0,13.4,1505.2,327.4,-0.8,1.8,2470.765,13.28,0.026,153.4
2021-11-08T07:10:03,42.805,6.029,0.024,-0.005,0.02,99.0,100.0,100.0,13.3,1505.2,329.7,-0.8,1.8,2470.787,13.28,0.024,101.8
2021-11-08T07:13:03,42.805,6.029,0.028,-0.016,-0.008,100.0,100.0,99.0,13.4,1505.2,325.9,-0.8,1.8,2470.783,13.28,0.032,119.7
2021-11-08T07:16:03,42.805,6.029,0.02,-0.007,0.002,100.0,101.0,99.0,13.4,1505.2,326.9,-0.8,1.8,2470.763,13.28,0.021,109.3
2021-11-08T07:19:03,42.805,6.029,0.029,-0.028,-0.027,100.0,99.0,101.0,13.3,1505.2,327.3,-0.7,1.8,2470.705,13.28,0.04,134.0
2021-11-08T07:22:03,42.805,6.029,0.011,-0.007,-0.016,100.0,100.0,101.0,13.3,1505.2,325.9,-0.7,1.8,2470.769,13.28,0.013,122.5
2021-11-08T07:25:03,42.805,6.029,0.044,-0.016,0.018,100.0,100.0,99.0,13.4,1505.2,325.5,-0.7,1.8,2470.733,13.28,0.046,110.0
2021-11-08T07:28:03,42.805,6.029,0.045,-0.02,-0.002,100.0,100.0,100.0,13.4,1505.2,328.7,-0.7,1.8,2470.758,13.28,0.049,114.0
2021-11-08T07:31:03,42.805,6.029,0.036,-0.012,0.011,100.0,103.0,100.0,13.4,1505.2,327.9,-0.8,1.8,2470.766,13.28,0.037,108.4
2021-11-08T07:34:03,42.805,6.029,0.036,-0.024,-0.004,101.0,102.0,99.0,13.3,1505.2,329.0,-0.8,1.8,2470.733,13.28,0.043,123.7
2021-11-08T07:37:03,42.805,6.029,0.022,-0.011,-0.006,101.0,98.0,101.0,13.4,1505.2,325.8,-0.8,1.8,2470.766,13.28,0.024,116.6
2021-11-08T07:40:03,42.805,6.029,0.028,-0.022,-0.02,100.0,100.0,100.0,13.4,1505.2,327.3,-0.7,1.9,2470.774,13.28,0.035,128.2
2021-11-08T07:43:03,42.805,6.029,0.02,-0.018,-0.01,100.0,100.0,100.0,13.4,1505.2,329.6,-0.7,1.8,2470.739,13.28,0.026,132.0
2021-11-08T07:46:03,42.805,6.029,0.019,-0.028,-0.039,100.0,100.0,100.0,13.4,1505.2,328.6,-0.7,1.8,2470.753,13.28,0.033,145.8
2021-11-08T07:49:03,42.805,6.029,0.034,-0.041,-0.031,99.0,99.0,100.0,13.4,1505.2,330.5,-0.7,1.8,2470.751,13.28,0.053,140.3
2021-11-08T07:52:03,42.805,6.029,0.036,-0.025,-0.018,100.0,98.0,101.0,13.4,1505.2,326.9,-0.8,1.8,2470.775,13.28,0.043,124.8
2021-11-08T07:55:03,42.805,6.029,0.023,0.004,0.018,98.0,101.0,101.0,13.4,1505.2,329.4,-0.8,1.9,2470.743,13.28,0.023,80.1
2021-11-08T07:58:03,42.805,6.029,0.032,0.007,0.033,99.0,99.0,100.0,13.4,1505.2,329.4,-0.8,1.8,2470.773,13.28,0.032,77.7
2021-11-08T08:04:03,42.805,6.029,0.023,-0.016,-0.015,100.0,99.0,100.0,13.4,1505.2,325.4,-0.7,1.8,2470.842,13.28,0.028,124.8
2021-11-08T08:07:03,42.805,6.029,0.011,-0.019,-0.016,100.0,101.0,99.0,13.4,1505.2,329.5,-0.8,1.8,2470.831,13.28,0.021,149.9
2021-11-08T08:10:03,42.805,6.029,0.049,-0.034,-0.02,99.0,101.0,99.0,13.4,1505.2,328.5,-0.8,1.8,2470.823,13.28,0.059,124.8
2021-11-08T08:13:03,42.805,6.029,0.068,-0.034,-0.002,100.0,100.0,100.0,13.4,1505.2,329.8,-0.8,1.8,2470.799,13.28,0.076,116.6
2021-11-08T08:16:03,42.805,6.029,0.03,-0.017,-0.007,101.0,99.0,99.0,13.4,1505.2,331.3,-0.8,1.8,2470.796,13.28,0.034,119.5
2021-11-08T08:19:03,42.805,6.029,0.012,-0.021,0.017,99.0,99.0,101.0,13.4,1505.2,329.5,-0.7,1.8,2470.76,13.28,0.024,150.3
2021-11-08T08:22:03,42.805,6.029,0.011,-0.015,0.0,100.0,101.0,100.0,13.4,1505.2,327.4,-0.8,1.8,2470.79,13.28,0.018,143.7
2021-11-08T08:25:03,42.805,6.029,0.03,-0.024,-0.036,99.0,101.0,99.0,13.4,1505.2,329.1,-0.7,1.8,2470.802,13.28,0.038,128.7
2021-11-08T08:28:03,42.805,6.029,0.038,-0.031,-0.023,98.0,101.0,101.0,13.3,1505.2,326.7,-0.8,1.8,2470.813,13.28,0.049,129.2
2021-11-08T08:31:03,42.805,6.029,0.016,0.012,-0.006,101.0,99.0,99.0,13.4,1505.2,327.4,-0.7,1.9,2470.754,13.28,0.02,53.1
2021-11-08T08:34:03,42.805,6.029,0.023,-0.02,-0.027,98.0,100.0,101.0,13.3,1505.2,326.3,-0.8,1.8,2470.817,13.28,0.03,131.0
2021-11-08T08:37:03,42.805,6.029,0.006,-0.017,-0.036,100.0,99.0,100.0,13.4,1505.2,326.7,-0.8,1.8,2470.789,13.28,0.018,160.6
2021-11-08T08:40:03,42.805,6.029,0.039,-0.046,-0.022,100.0,99.0,100.0,13.4,1505.2,327.7,-0.7,1.8,2470.787,13.28,0.06,139.7
2021-11-08T08:43:03,42.805,6.029,0.042,0.0,-0.005,99.0,100.0,99.0,13.4,1505.2,331.0,-0.8,1.8,2470.806,13.28,0.042,90.0
2021-11-08T08:46:03,42.805,6.029,0.0,-0.024,-0.029,100.0,99.0,100.0,13.4,1505.2,326.6,-0.8,1.8,2470.802,13.28,0.024,180.0
2021-11-08T08:49:03,42.805,6.029,0.043,-0.025,-0.033,101.0,98.0,99.0,13.4,1505.2,326.3,-0.7,1.8,2470.796,13.28,0.049,120.2
2021-11-08T08:52:03,42.805,6.029,0.029,-0.009,-0.007,100.0,100.0,100.0,13.3,1505.2,330.1,-0.8,1.8,2470.816,13.28,0.03,107.2
2021-11-08T08:55:03,42.805,6.029,0.03,-0.005,0.0,98.0,100.0,100.0,13.4,1505.2,325.2,-0.7,1.8,2470.78,13.28,0.03,99.5
2021-11-08T08:58:03,42.805,6.029,0.006,0.001,-0.01,99.0,100.0,100.0,13.3,1505.2,328.8,-0.7,1.8,2470.79,13.28,0.006,80.5
2021-11-08T09:04:03,42.805,6.029,0.033,-0.03,-0.028,99.0,99.0,100.0,13.4,1505.2,330.6,-0.8,1.8,2470.86,13.28,0.044,132.3
2021-11-08T09:07:03,42.805,6.029,0.02,-0.012,-0.031,100.0,99.0,100.0,13.4,1505.2,329.2,-0.7,1.8,2470.869,13.28,0.023,121.0
2021-11-08T09:10:03,42.805,6.029,0.007,0.014,0.008,99.0,99.0,100.0,13.4,1505.2,330.9,-0.7,1.8,2470.824,13.28,0.015,26.6
2021-11-08T09:13:03,42.805,6.029,0.052,-0.026,0.0,99.0,100.0,101.0,13.4,1505.2,326.7,-0.7,1.8,2470.835,13.28,0.058,116.6
2021-11-08T09:16:03,42.805,6.029,0.01,-0.025,-0.009,99.0,100.0,100.0,13.3,1505.2,328.5,-0.7,1.8,2470.812,13.28,0.026,158.2
2021-11-08T09:19:03,42.805,6.029,0.014,-0.007,-0.006,99.0,100.0,101.0,13.3,1505.2,325.9,-0.8,1.8,2470.827,13.28,0.015,116.6
2021-11-08T09:22:03,42.805,6.029,0.016,-0.004,-0.002,100.0,100.0,99.0,13.4,1505.2,330.1,-0.8,1.8,2470.807,13.28,0.016,104.0
2021-11-08T09:25:03,42.805,6.029,0.05,-0.028,-0.002,101.0,99.0,98.0,13.4,1505.2,331.0,-0.8,1.8,2470.784,13.28,0.057,119.3
2021-11-08T09:28:03,42.805,6.029,0.058,-0.049,-0.064,101.0,99.0,100.0,13.3,1505.2,327.6,-0.7,1.8,2470.808,13.28,0.075,130.2
2021-11-08T09:31:03,42.805,6.029,0.019,-0.007,-0.024,101.0,99.0,99.0,13.3,1505.2,326.1,-0.8,1.8,2470.828,13.28,0.02,110.2
2021-11-08T09:34:03,42.805,6.029,0.03,-0.019,-0.028,98.0,102.0,100.0,13.3,1505.2,326.0,-0.8,1.8,2470.819,13.28,0.035,122.3
2021-11-08T09:37:03,42.805,6.029,0.008,-0.025,-0.008,99.0,100.0,100.0,13.3,1505.2,330.3,-0.7,1.8,2470.793,13.28,0.026,162.3
2021-11-08T09:40:03,42.805,6.029,0.016,-0.006,-0.003,100.0,100.0,100.0,13.4,1505.2,329.6,-0.7,1.8,2470.831,13.28,0.017,110.6
2021-11-08T09:43:03,42.805,6.029,0.023,-0.033,-0.024,99.0,99.0,100.0,13.3,1505.2,330.8,-0.7,1.8,2470.788,13.28,0.04,145.1
2021-11-08T09:46:03,42.805,6.029,0.001,-0.025,-0.035,99.0,100.0,100.0,13.4,1505.2,329.3,-0.8,1.8,2470.826,13.28,0.025,177.7
2021-11-08T09:49:03,42.805,6.029,0.04,-0.023,-0.036,99.0,102.0,98.0,13.4,1505.2,331.4,-0.7,1.8,2470.853,13.28,0.046,119.9
2021-11-08T09:52:03,42.805,6.029,0.002,-0.017,-0.049,100.0,100.0,100.0,13.4,1505.2,330.4,-0.8,1.8,2470.802,13.28,0.017,173.3
2021-11-08T09:55:03,42.805,6.029,0.026,-0.024,-0.036,101.0,98.0,99.0,13.4,1505.2,330.3,-0.8,1.8,2470.797,13.28,0.035,132.7
2021-11-08T09:58:03,42.805,6.029,0.044,-0.01,0.013,98.0,100.0,101.0,13.4,1505.2,329.7,-0.7,1.8,2470.806,13.28,0.045,102.8
2021-11-08T10:01:03,42.805,6.029,0.055,-0.018,0.007,99.0,101.0,99.0,13.3,1505.2,325.4,-0.7,1.8,2470.811,13.28,0.057,108.1